ASTROCAST-0102 (47488 NORAD) Tracking and Keplerian Element Data

This shows tracking and keplerian element data for the satellite.

Feedback or suggestion? Click here.




ElementValue
Catalog47488
NameASTROCAST-0102
Epoch Orbit1251
Epoch Day105.39239851
Epoch Year2021
RAAN167.6673
Inclination97.4952
Eccentricity0.0008547
Argument of Perigee336.6566
Mean Anonmoly23.4276
Mean Motion15.12388725
Decay Rate9.33E-06
L11 47488U 21006CD 21105.39239851 .00000933 00000-0 57418-4 0 9993
L22 47488 97.4952 167.6673 0008547 336.6566 23.4276 15.12388725 12519

Live tracking and technical data element details for ASTROCAST-0102 (NORAD 47488). ASTROCAST-0102 can be tracked NOW for your location showing map with azimuth and elevation plus other details from your city location.

Track the satellite on the map from your city or location and see movement details for azimuth, elevation, latitude, longitude, range, height, and movement on the map or in text.







IsCatalogInMostPopularTable: catalog: 47488, numindb: 19
Update: records affected: 1



GetName: 47488 ASTROCAST-0102

Hit Count: updated at: Fri, 16 Apr 2021 11:10:11 GMT